Progress Software ROE 2010-2024 | PRGS

Current and historical return on equity (ROE) values for Progress Software (PRGS) over the last 10 years. Return on equity can be defined as the amount of net income returned as a percentage of shareholders equity. Return on equity measures a corporation's profitability by revealing how much profit a company generates with the money shareholders have invested.
Progress Software ROE - Return on Equity Historical Data
Date TTM Net Income Shareholder's Equity Return on Equity
2024-02-29 $0.07B $0.46B 15.45%
2023-11-30 $0.07B $0.46B 16.12%
2023-08-31 $0.08B $0.45B 18.85%
2023-05-31 $0.08B $0.42B 20.53%
2023-02-28 $0.10B $0.41B 25.53%
2022-11-30 $0.10B $0.40B 25.23%
2022-08-31 $0.09B $0.37B 22.65%
2022-05-31 $0.10B $0.37B 24.53%
2022-02-28 $0.08B $0.37B 20.74%
2021-11-30 $0.08B $0.41B 20.68%
2021-08-31 $0.08B $0.40B 22.44%
2021-05-31 $0.08B $0.37B 20.94%
2021-02-28 $0.08B $0.35B 22.17%
2020-11-30 $0.08B $0.35B 23.15%
2020-08-31 $0.06B $0.37B 16.69%
2020-05-31 $0.05B $0.34B 14.12%
2020-02-29 $0.04B $0.33B 11.64%
2019-11-30 $0.03B $0.33B 8.09%
2019-08-31 $0.04B $0.33B 12.51%
2019-05-31 $0.04B $0.32B 12.79%
2019-02-28 $0.05B $0.31B 14.46%
2018-11-30 $0.05B $0.32B 15.55%
2018-08-31 $0.05B $0.31B 14.65%
2018-05-31 $0.05B $0.31B 12.91%
2018-02-28 $0.04B $0.35B 11.40%
2017-11-30 $0.03B $0.38B 7.24%
2017-08-31 $-0.05B $0.39B -13.69%
2017-05-31 $-0.06B $0.39B -13.56%
2017-02-28 $-0.06B $0.39B -13.49%
2016-11-30 $-0.06B $0.41B -11.69%
2016-08-31 $0.01B $0.50B 1.77%
2016-05-31 $-0.00B $0.49B -0.58%
2016-02-29 $-0.00B $0.52B -0.76%
2015-11-30 $-0.01B $0.52B -1.51%
2015-08-31 $0.02B $0.53B 2.81%
2015-05-31 $0.03B $0.52B 5.64%
2015-02-28 $0.04B $0.54B 6.97%
2014-11-30 $0.05B $0.54B 9.28%
2014-08-31 $0.05B $0.52B 9.61%
2014-05-31 $0.06B $0.52B 12.33%
2014-02-28 $0.06B $0.53B 10.48%
2013-11-30 $0.08B $0.51B 13.82%
2013-08-31 $0.10B $0.52B 16.73%
2013-05-31 $0.08B $0.54B 12.55%
2013-02-28 $0.07B $0.60B 11.04%
2012-11-30 $0.05B $0.64B 7.15%
2012-08-31 $0.02B $0.68B 3.52%
2012-05-31 $0.03B $0.66B 3.99%
2012-02-29 $0.05B $0.65B 6.90%
2011-11-30 $0.06B $0.63B 8.80%
2011-08-31 $0.07B $0.67B 9.89%
2011-05-31 $0.07B $0.72B 10.03%
2011-02-28 $0.07B $0.72B 10.51%
2010-11-30 $0.05B $0.69B 7.63%
2010-08-31 $0.04B $0.63B 7.38%
2010-05-31 $0.04B $0.63B 7.21%
2010-02-28 $0.03B $0.57B 5.38%
2009-11-30 $0.03B $0.56B 6.55%
Sector Industry Market Cap Revenue
Computer and Technology Computer Software $2.083B $0.694B
Progress offers the leading platform for developing and deploying mission-critical business applications. Progress empowers enterprises and ISVs to build and deliver cognitive-first applications that harness big data to derive business insights and competitive advantage. Progress offers leading technologies for easily building powerful user interfaces across any type of device, a reliable, scalable and secure backend platform to deploy modern applications, leading data connectivity to all sources, and award-winning predictive analytics that brings the power of machine learning to any organization.
Stock Name Country Market Cap PE Ratio
Microsoft (MSFT) United States $3312.579B 38.59
Oracle (ORCL) United States $392.788B 31.97
Salesforce (CRM) United States $234.304B 34.89
Adobe (ADBE) United States $234.282B 37.51
Intuit (INTU) United States $172.223B 53.67
Synopsys (SNPS) United States $93.489B 64.43
Cadence Design Systems (CDNS) United States $86.775B 82.52
Autodesk (ADSK) United States $52.478B 47.84
Dassault Systemes SA (DASTY) France $50.111B 32.56
ANSYS (ANSS) United States $28.432B 52.61
MicroStrategy (MSTR) United States $25.992B 0.00
PTC (PTC) United States $21.071B 55.88
SS&C Technologies Holdings (SSNC) United States $15.371B 14.56
Manhattan Associates (MANH) United States $14.349B 76.16
Descartes Systems Group (DSGX) Canada $7.975B 66.71
Open Text (OTEX) Canada $7.854B 7.99
Trend Micro (TMICY) Japan $5.557B 40.24
CommVault Systems (CVLT) United States $5.125B 83.75
Pegasystems (PEGA) United States $4.896B 43.29
Blackbaud (BLKB) United States $3.909B 33.65
ACI Worldwide (ACIW) United States $3.851B 18.44
Verint Systems (VRNT) United States $2.127B 19.92
Sapiens (SPNS) Israel $1.829B 24.94
BlackBerry (BB) Canada $1.369B 0.00
PROS Holdings (PRO) United States $1.324B 0.00
Simulations Plus (SLP) United States $0.944B 69.46
Rand Worldwide (RWWI) United States $0.652B 0.00
Magic Software Enterprises (MGIC) Israel $0.505B 10.72
Canaan (CAN) China $0.319B 0.00
American Software (AMSWA) United States $0.284B 24.40
OptimizeRx (OPRX) United States $0.196B 0.00
Rigetti Computing (RGTI) United States $0.151B 0.00
Icad Inc (ICAD) United States $0.038B 0.00
Neonode (NEON) Sweden $0.031B 0.00
Wetouch Technology (WETH) $0.031B 0.00
NetSol Technologies (NTWK) United States $0.029B 0.00
Smith Micro Software (SMSI) United States $0.022B 0.00
Hanryu Holdings (HRYU) South Korea $0.014B 0.00
GSE Systems (GVP) United States $0.011B 0.00
SAP SE (SAP) Germany $0.000B 48.97